STARLINK-35291, 66083

Orbit data source: Space-Track

STARLINK-35291, 66083 is a payload satellite owned by SpaceX/Seattle (US) in LEO that was launched on Sun, 19 Oct 2025 UTC via an FALCON 9 launch vehicle from the Air Force Eastern Test Range (AFETR). Payload-class satellites include a variety of spacecraft equipped with specific instruments for various scientific and technological missions. These include communications satellites like Starlink; space stations such as the ISS; scientific satellites like the Hubble; Earth observation satellites from companies like Planet Labs, Umbra, and HawkEye 360; GPS; miniature CubeSats for education and research; and military/defense satellites.

Loading next visibility...
Identifier
66083, 2025-235AB
Orbit
LEO
Country
Flag of USUS
Related business
Manufacturer
SpaceX/Seattle
Mission
Operational spacecraft
Bus & Motor
STARLINK V2MO, Unknown motor
Mass
575 kg wet, ~530 kg dry
Launch date (UTC)
2025-10-19 (2 weeks ago)
Launch vehicle
FALCON 9
Launch site
Air Force Eastern Test Range (AFETR)
Object type
Payload
Rocket body
Debris
Shape & HBR
Unknown
Radar Cross Section
RCS unknown

Expand to show TLE details & history
Last TLE update: 23 hours ago

TLE from 23 hours ago
0 STARLINK-35291
1 66083U 25235AB  25305.58335648 -.01746834  00000-0 -11553-1 0  9998
2 66083  53.1501 124.7051 0000859 101.1563 347.9980 15.77771879  3214
Epoch: 2025-11-01T14:00Z
TLE epoch observation values (Epoch: 2025-11-01T14:00:01.999Z)
Latitude
53.29672°
Longitude
-37.8297°
Altitude
342.737 km
Speed
7.71 km/s
True Right ascension
14h 13m 09s
True Declination
53° 07' 18"
Sunlit
Object was in daylight at epoch
Visualization orbit readout
Latitude
Unknown
Longitude
Unknown
Altitude
Unknown
Speed
Unknown
Apparent Right ascension
Unknown
Apparent Declination
Unknown
Sunlit
N/A
Visualization observer readout
Local Sidereal Time
08:49:37
Azimuth
Unknown
Elevation
Unknown
Doppler factor
Unknown
Orbital elements
Apogee altitude
337.595 km
Perigee altitude
336.441 km
Semi-major axis
6,715.155 km
Eccentricity
0.00009
Inclination
53.1501°
RAAN
124.7051°
Arg. of periapsis
101.1563°
True anomaly
347.99595°
Mean anomaly
347.998°
Eccentric anomaly
347.99698°
Mean motion
3.9442 °/min
Orbital period
91.27 mins
BSTAR
-0.011553
Loading maneuver chart data...
Computing Atmospheric mass density...
Loading historical data...
Loading historical data...
Loading historical data...
Loading historical data...
Loading historical data...
Loading historical data...
Loading historical data...

Documentation

Showing up to 5 results
|